星链-37481(STARLINK-37481)

导读

STARLINK-37481(标称NORAD编号100032)是SpaceX星链第三代(Gen3)甚低轨通信卫星,是星舰发射的首批批量部署星链卫星之一,2026年上半年发射入轨,运行于323-327.5公里高度的甚低地球轨道,轨道倾角适配中低纬度覆盖需求。 该卫星单星下行容量达1Tbps,上行容量160-200Gbps,搭载氩霍尔推进器、先进相控阵天线与激光星间链路,可提供低于20ms的端到端传输延迟,当前在轨状态稳定,主要为全球偏远区域、航空航海场景提供高速低时延互联网接入服务,是星链第三代10万颗星座组网的组成卫星。

基本信息
目录编号:
100032
目录名称:
STARLINK-37481
国际标识:
2026-161E
轨道中心:
EARTH
卫星名称:
星链-37481
卫星全名:
星链-37481(STARLINK-37481)
卫星状态:
在轨 (已飞行59 天)
发射日期:
2026-07-14 UTC
国别 :
美国 (US)
星等 :
--
轨道信息
数据来源 国际轨道数据
星历时间: 2026-09-10T22:46:14+0800
13小时前
查看轨道信息
半长轴: 6840.837km
偏心率: 0.0002064
轨道倾角: 53.162°
近地点辐角 43.452°
升交点赤经 43.867°
平近点角 316.664°
近地点: 461.288km
远地点: 464.112km
周期: 93.848分钟
每日圈数: 15.344011
详细信息
固有亮度:
5
最大亮度:
2.5
卫星平台:
Starlink V1.0
覆盖范围:
全球
运营商:
太空探索技术公司
运营商所在国:
美国
制造商(研发单位):
太空探索技术公司
制造商所在国:
美国
使用方式:
暂无
卫星简介
Starlink 计划是 SpaceX 推出的全球卫星互联网项目,通过发射低轨道卫星,为全球尤其是偏远地区提供高速、低延迟的互联网服务。自 2019 年起,Starlink 已部署数千颗卫星,旨在缩小全球数字鸿沟,推动互联网普及。该项目还为军事、航空等行业提供通信支持,带来广泛经济效益。
2D轨道图
3D轨道图
轨道高度分析图
轨道倾角分析图
轨道综合分析图
查看轨道综合分析图
与全量物体交会距离演化趋势
与全量物体交会风险概率演化趋势